Regional Weather Roundup
Issued by NWS

Home | Current Version | Previous Version | Text Only | Print | Product List | Glossary On
Versions: 1 2 3 4 5 6 7 8 9 10 11 12 13 14 15 16 17 18 19 20 21 22 23 24 25 26 27 28 29 30 31 32 33 34 35 36 37 38 39 40 41 42 43 44 45 46 47 48 49 50
000
ASUS42 KFFC 291910
RWRGA
WEATHER ROUNDUP FOR GEORGIA
NATIONAL WEATHER SERVICE PEACHTREE CITY GA
300 PM EDT SAT AUG 29 2015

NOTE: "FAIR" INDICATES FEW OR NO CLOUDS BELOW 12,000 FEET WITH NO
SIGNIFICANT WEATHER AND/OR OBSTRUCTIONS TO VISIBILITY.

* = USE WITH CAUTION. THE STATIONS MARKED WITH AN ASTERISK MAY NOT
REPORT WEATHER SUCH AS PRECIPITATION, FOG, OR THUNDER AND ARE NOT
QUALITY CONTROLLED BY NWS.

THE REMARK "TC" DENOTES TEMPERATURE READING IN DEGREES CELSIUS.

GAZ001>058-292000-
NORTH GEORGIA

CITY           SKY/WX    TMP DP  RH WIND       PRES   REMARKS
ATLANTA        PTSUNNY   80  67  64 E12       30.17F
ATHENS         CLOUDY    83  64  52 E8        30.18F
CHAMBLEE       PTSUNNY   82  66  58 E8        30.17F
PEACHTREE CITY LGT RAIN  74  72  93 SE6       30.18F FOG
ROME           LGT RAIN  75  69  81 S6        30.14F
WEST ATLANTA   PTSUNNY   82  65  56 E9        30.16F
GAINESVILLE    CLOUDY    80  66  62 E10       30.22F
CARTERSVILLE   MOSUNNY   83  66  56 SE8G16    30.15F


CITY           SKY/WX    TMP DP  RH WIND       PRES   REMARKS
DALTON*        MOSUNNY   82  66  57 SE13      30.14F
LAWRENCEVILLE* MOSUNNY   82  63  51 E6        30.19F
MARIETTA       PTSUNNY   82  68  64 SE12      30.16F
KENNESAW*      MOSUNNY   82  66  57 SE9G17    30.18F
BLAIRSVILLE*     N/A     79  25  13 SE8       30.22F
$$

GAZ059>098-102>109-292000-
CENTRAL GEORGIA

CITY           SKY/WX    TMP DP  RH WIND       PRES   REMARKS
AUGUSTA-BUSH   CLOUDY    84  61  45 E8        30.15F
AUGUSTA-DANIEL CLOUDY    85  61  44 E9        30.17F
COLUMBUS       PTSUNNY   82  70  66 SE9       30.11F
MACON          CLOUDY    79  72  78 E8        30.13F
ROBINS AFB     PTSUNNY   81  72  74 NE8       30.12F


CITY           SKY/WX    TMP DP  RH WIND       PRES   REMARKS
LAGRANGE*      HVY RAIN  76  76  99 SE13      30.15R VSB 1
SYLVANIA*      MOSUNNY   87  71  59 E8        30.15F HX  92
MILLEDGEVILLE* PTSUNNY   81  68  65 E7        30.15F
$$

GAZ099>101-110>166-292000-
SOUTH GEORGIA

CITY           SKY/WX    TMP DP  RH WIND       PRES   REMARKS
SAVANNAH       PTSUNNY   83  70  64 NE13      30.14F
VALDOSTA       CLOUDY    74  73  97 VRB5      30.11S
ALMA           PTSUNNY   85  71  63 E8        30.10F HX  90
ST SIMONS      PTSUNNY   84  72  67 E13       30.10F
FT STEWART     MOSUNNY   83  72  68 E10       30.11S
ALBANY         LGT RAIN  78  71  79 NE5       30.13F
HUNTER AFB     MOSUNNY   81  76  86 NE9       30.11F
MOODY AFB      CLOUDY    72  68  88 N9G20     30.10F
BRUNSWICK      PTSUNNY   86  73  66 NE9G16    30.11F HX  93


CITY           SKY/WX    TMP DP  RH WIND       PRES   REMARKS
BAINBRIDGE*    HVY RAIN  72  68  88 N13       30.10R VSB 3/4
MOULTRIE*      CLOUDY    75  72  88 NE3       30.12F
VIDALIA*       HVY RAIN  75  73  94 NW6       30.14F
WAYCROSS*      PTSUNNY   90  76  64 E9        30.09F HX 101
DOUGLAS*       CLOUDY    84  72  65 NE6       30.12F
$$


USA.gov is the U.S. government's official web portal to all federal, state and local government web resources and services.